Regional Weather Roundup
Issued by NWS

Home | Current Version | Previous Version | Graphics & Text | Print | Product List | Glossary Off
Versions: 1 2 3 4 5 6 7 8 9 10 11 12 13 14 15 16 17 18 19 20 21 22 23 24 25 26 27 28 29 30 31 32 33 34 35 36 37 38 39 40 41 42 43 44 45 46 47 48 49 50

000
ASUS43 KDTX 262110
RWRMI
MICHIGAN HOURLY REGIONAL WEATHER ROUNDUP
NATIONAL WEATHER SERVICE DETROIT/PONTIAC MI
500 PM EDT FRI MAY 26 2017

NOTE: "FAIR" INDICATES FEW OR NO CLOUDS BELOW 12,000 FEET WITH NO
SIGNIFICANT WEATHER AND/OR OBSTRUCTION TO VISIBILITY.

MIZ047>049-052>055-059>063-066>070-074>076-081>083-262200-
SOUTHEAST LOWER MICHIGAN

CITY           SKY/WX    TMP DP  RH WIND       PRES   REMARKS
ADRIAN         CLOUDY    70  52  52 CALM      29.86S
ALMA           CLOUDY    68  52  55 CALM      29.85R
ANN ARBOR      CLOUDY    68  54  60 W5        29.85S
BAD AXE        CLOUDY    63  53  70 NW5       29.84S
CARO           PTSUNNY   69  53  57 NW7       29.84S
DETROIT CITY   CLOUDY    68  54  60 NW8       29.85S
DETROIT        PTSUNNY   68  52  56 NW8       29.86R
FLINT          CLOUDY    68  52  56 SW3       29.85S
GROSSE ILE     CLOUDY    64  55  72 S6        29.85R
HILLSDALE      CLOUDY    68  52  56 W3        29.86S
HOWELL         CLOUDY    66  48  51 CALM      29.86R

CITY           SKY/WX    TMP DP  RH WIND       PRES   REMARKS
JACKSON        CLOUDY    68  52  56 CALM      29.86S
LAMBERTVILLE   MOSUNNY   70  54  58 CALM      29.85S
LANSING        CLOUDY    69  49  48 W6        29.87R
LAPEER         CLOUDY    66  53  63 CALM      29.86R
MASON          CLOUDY    66  54  64 N3        29.87R
MONROE         PTSUNNY   70  54  55 NW3       29.85R
MT. CLEMENS    PTSUNNY   67  56  66 W8        29.84R
PONTIAC        CLOUDY    66  52  60 W7        29.85R
PORT HOPE        N/A     57  53  86 CALM      29.83F
PORT HURON     CLOUDY    63  52  67 NE6       29.86R
TRI CITIES     CLOUDY    69  54  58 CALM      29.84S
MIDLAND        FAIR      71  51  50 W5        29.82S
TROY           CLOUDY    69  52  54 NW6       29.87S
SAGINAW HB     MOSUNNY   70  50  49 NW3       29.83S
$$
MIZ043>046-050>051-056>058-064>065-071>073-077>080-262200-
SOUTHWEST LOWER MICHIGAN

CITY           SKY/WX    TMP DP  RH WIND       PRES   REMARKS
BATTLE CREEK   CLOUDY    70  54  56 N5        29.85F
BENTON HARBOR  CLOUDY    66  54  65 N6        29.84S
BIG RAPIDS     CLOUDY    69  50  51 CALM      29.84R
COLDWATER      CLOUDY    68  56  67 CALM      29.85F
FREMONT        PTSUNNY   67  50  54 W8        29.83S
HOLLAND        CLOUDY    64  52  64 CALM      29.85F
GRAND RAPIDS   CLOUDY    69  53  56 S5        29.84F
IONIA          PTSUNNY   69  50  50 CALM      29.85R
KALAMAZOO      CLOUDY    69  53  56 CALM      29.84F
LUDINGTON      CLOUDY    55  51  85 W9G21     29.84S
MARSHALL       CLOUDY    69  54  58 CALM      29.85S
MOUNT PLEASANT MOSUNNY   69  50  50 W5        29.83R
MUSKEGON       CLOUDY    61  52  72 N6        29.83F
SOUTH HAVEN    CLOUDY    64  57  78 CALM      29.84S
$$
MIZ016>042-262200-
NORTHERN LOWER MICHIGAN

CITY           SKY/WX    TMP DP  RH WIND       PRES   REMARKS
ALPENA         PTSUNNY   67  51  56 VRB3      29.83S
BEAVER ISLAND  MOSUNNY   63  51  65 W10       29.85F
BELLAIRE       MOSUNNY   68  52  55 W6        29.83S
CADILLAC       CLOUDY    67  50  53 N3        29.83F
CHARLEVOIX     CLOUDY    60  52  75 W12       29.88S
FRANKFORT      CLOUDY    65  51  62 NW5       29.85R
GAYLORD        CLOUDY    69  47  45 NE5       29.84S
GRAYLING       CLOUDY    68  51  53 CALM      29.84S
HARBOR SPRINGS MOSUNNY   52  49  88 SW6       29.84F
HOUGHTON LAKE  CLOUDY    67  49  52 W5        29.83F
MANISTEE       MOSUNNY   63  53  70 W7        29.84S
OSCODA         CLOUDY    62  54  74 E6        29.84R
PELLSTON       MOSUNNY   71  53  52 W10       29.83S
ROGERS CITY    SUNNY     65  52  62 NE3       29.85S
TRAVERSE CITY  PTSUNNY   68  52  56 NE8       29.81F
$$
MIZ007>008-015-262200-
EASTERN UPPER MICHIGAN

CITY           SKY/WX    TMP DP  RH WIND       PRES   REMARKS
KINROSS        CLOUDY    69  51  52 CALM      29.82S
MACKINAC ISLAN SUNNY     61  51  70 SW6       29.83R
NEWBERRY       CLOUDY    69  53  58 S9G16     29.82R
S. S. MARIE    MOSUNNY   70  51  51 W5        29.80S
MUNISING         N/A     54  48  80 CALM      29.81F
$$
MIZ004>006-011>014-085-262200-
CENTRAL UPPER MICHIGAN

CITY           SKY/WX    TMP DP  RH WIND       PRES   REMARKS
MANISTIQUE     MOSUNNY   63  50  63 SW9       29.83S
ESCANABA       MOSUNNY   64  54  69 SE8       29.84F
MENOMINEE      CLOUDY    66  53  63 S9        29.84F
SAWYER-GWINN   PTSUNNY   70  48  46 SE10      29.81F
$$
MIZ001>003-009>011-084-262200-
WESTERN UPPER MICHIGAN

CITY           SKY/WX    TMP DP  RH WIND       PRES   REMARKS
IRON MOUNTAIN  LGT RAIN  64  56  75 S6        29.81F
HOUGHTON       CLOUDY    59  48  67 E8        29.79S
COPPER HARBOR    N/A     64  48  56 S7G20     29.78S
IRONWOOD       CLOUDY    67  56  67 SW3       29.77S
$$

ABBREVIATIONS USED IN REMARKS
   TC - TEMPERATURE IN CELSIUS
  WCI - WIND CHILL INDEX
   HX - HEAT INDEX
  VSB - VISIBILITY





USA.gov is the U.S. government's official web portal to all federal, state and local government web resources and services.